Flag Weather past 2 weeks in Belfast, Northern Ireland, United Kingdom

Now
59 °F

Mostly cloudy.


Feels Like: 58 °F
Forecast: 56 / 62 °F
Wind: 7 mph from South

Location: Belfast / Aldergrove Airport

Current Time: Oct 31, 2014 at 4:09:27 AM

Latest Report: Oct 31, 2014 at 3:20 AM


Visibility: N/A

Pressure: 29.74 "Hg

Humidity: 88%

Dew point: 55 °F

Location of BelfastLocation

Historic Weather in Belfast — Graph

°F

Belfast temperature yesterday

Maximum temperature yesterday: 61 °F (at 12:50 PM)
Minimum temperature yesterday: 52 °F (at 12:20 AM)
Average temperature yesterday: 58 °F

Past Weeks' High & Low Weather Summary

 TemperatureHumidityPressure
High64 °F (Oct 18, 2:20 PM)100% (Oct 16, 3:50 AM)30.18 "Hg (Oct 16, 3:50 AM)
Low34 °F (Oct 28, 9:50 PM)62% (Oct 29, 12:50 PM)29.21 "Hg (Oct 21, 2:20 AM)
Average53 °F87%29.73 "Hg
* Reported Oct 16 3:20 AM — Oct 31 2:50 AM, Belfast, Weather by CustomWeather, © 2014

Note: Actual official high and low records may vary slightly from our data, if they occured in-between our weather recording intervals... More about our weather records

Advertising

Belfast weather history for previous 24 hours

 ConditionsComfort  
Time TempWeatherWind HumidityBarometerVisibility
2:50 AM
Oct 31
59 °FMostly cloudy.8 mph88%29.74 "HgN/A
2:20 AM59 °FMostly cloudy.10 mph88%29.74 "HgN/A
1:50 AM59 °FPartly cloudy.10 mph88%29.74 "HgN/A
1:20 AM59 °FMostly cloudy.12 mph88%29.77 "HgN/A
12:50 AM59 °FMostly cloudy.10 mph88%29.77 "HgN/A
12:20 AM59 °FPassing clouds.13 mph88%29.77 "HgN/A
11:50 PM
Oct 30
59 °FPassing clouds.10 mph88%29.77 "HgN/A
11:20 PM59 °FPartly cloudy.10 mph88%29.77 "HgN/A
10:50 PM59 °FPassing clouds.13 mph88%29.77 "HgN/A
10:20 PM59 °FPassing clouds.12 mph88%29.77 "HgN/A
9:50 PM59 °FPassing clouds.12 mph88%29.77 "HgN/A
9:20 PM59 °FPassing clouds.13 mph88%29.80 "HgN/A
8:50 PM59 °FPassing clouds.13 mph88%29.80 "HgN/A
8:20 PM59 °FPassing clouds.13 mph88%29.80 "HgN/A
7:50 PM61 °FPassing clouds.13 mph83%29.80 "HgN/A
7:20 PM59 °FPassing clouds.9 mph88%29.77 "HgN/A
6:50 PM59 °FPassing clouds.9 mph88%29.80 "HgN/A
6:20 PM59 °FPassing clouds.8 mph88%29.80 "HgN/A
5:50 PM59 °FPassing clouds.7 mph88%29.80 "HgN/A
5:20 PM61 °FPassing clouds.10 mph83%29.80 "HgN/A
4:50 PM59 °FPartly sunny.8 mph88%29.80 "HgN/A
4:20 PM59 °FScattered clouds.7 mph88%29.80 "HgN/A
3:50 PM61 °FScattered clouds.8 mph83%29.80 "HgN/A
3:20 PM61 °FPartly sunny.8 mph83%29.80 "HgN/A
2:50 PM61 °FScattered clouds.9 mph83%29.83 "HgN/A
2:20 PM61 °FScattered clouds.10 mph83%29.83 "HgN/A
1:50 PM61 °FPartly sunny.9 mph83%29.83 "HgN/A
1:20 PM61 °FPartly sunny.8 mph83%29.83 "HgN/A
12:50 PM61 °FPartly sunny.10 mph83%29.86 "HgN/A
12:20 PM59 °FPartly sunny.9 mph88%29.83 "HgN/A
11:50 AM59 °FPartly sunny.9 mph88%29.83 "HgN/A
11:20 AM59 °FBroken clouds.6 mph88%29.83 "HgN/A
10:50 AM59 °FPartly sunny.8 mph88%29.83 "HgN/A
10:20 AM59 °FPartly sunny.8 mph88%29.83 "Hg4 mi
9:50 AM59 °FPartly sunny.10 mph88%29.83 "HgN/A
9:20 AM59 °FPartly sunny.7 mph88%29.83 "Hg5 mi
8:50 AM57 °FPartly sunny.7 mph94%29.83 "Hg5 mi
8:20 AM57 °FPartly sunny.6 mph94%29.83 "Hg4 mi
7:50 AM57 °FPartly sunny.6 mph94%29.80 "Hg4 mi
7:20 AM57 °FFog.6 mph94%29.80 "Hg3 mi
6:50 AM57 °FFog.8 mph100%29.80 "Hg2 mi
6:20 AM57 °FFog.7 mph94%29.80 "Hg2 mi
5:50 AM55 °FDrizzle. Mostly cloudy.9 mph100%29.80 "Hg2 mi
5:20 AM55 °FDrizzle. Low clouds.8 mph100%29.80 "Hg2 mi
4:50 AM55 °FMostly cloudy.12 mph100%29.80 "Hg5 mi
4:20 AM55 °FMostly cloudy.10 mph94%29.80 "HgN/A
Weather by CustomWeather, © 2014

See weather overviewHow to use our weather pages